• Em Portugal
  • Lista de países
  • Para 7 dias
  • Temperatura da água
  • Mapas de satélite
  • Mapa do tempo
  • Widgets de tempo
  • user-avatar
    Iniciar Sessão

    Previsão horária em Neuquén

    Hoje, 23 Setembro, Domingo

    Tempo Temperatura Precipitação Vento Pressão Humidade
    00:00 +12°C° 0 mm 7 m/s 729 mmHg 40%
    01:00 +11°C° 0 mm 6 m/s 729 mmHg 41%
    02:00 +11°C° 0 mm 6 m/s 730 mmHg 42%
    03:00 +11°C° 0 mm 6 m/s 730 mmHg 42%
    04:00 +12°C° 0 mm 5 m/s 730 mmHg 42%
    05:00 +11°C° 0 mm 7 m/s 731 mmHg 40%
    06:00 +12°C° 0 mm 10 m/s 732 mmHg 38%
    07:00 +13°C° 0 mm 12 m/s 732 mmHg 37%
    08:00 +14°C° 0 mm 12 m/s 732 mmHg 33%
    09:00 +15°C° 0 mm 12 m/s 733 mmHg 29%
    10:00 +17°C° 0 mm 12 m/s 733 mmHg 26%
    11:00 +17°C° 0 mm 12 m/s 733 mmHg 25%
    12:00 +18°C° 0 mm 11 m/s 733 mmHg 24%
    13:00 +18°C° 0 mm 11 m/s 733 mmHg 23%
    14:00 +18°C° 0 mm 11 m/s 733 mmHg 23%
    15:00 +18°C° 0 mm 11 m/s 733 mmHg 23%
    16:00 +18°C° 0 mm 11 m/s 733 mmHg 23%
    17:00 +17°C° 0 mm 10 m/s 734 mmHg 27%
    18:00 +15°C° 0 mm 8 m/s 734 mmHg 30%
    19:00 +14°C° 0 mm 7 m/s 735 mmHg 33%
    20:00 +12°C° 0 mm 7 m/s 735 mmHg 36%
    21:00 +12°C° 0 mm 7 m/s 736 mmHg 39%
    22:00 +11°C° 0 mm 8 m/s 736 mmHg 42%
    23:00 +10°C° 0 mm 6 m/s 736 mmHg 44%

    Amanhã, 24 Setembro, Segunda-feira

    Tempo Temperatura Precipitação Vento Pressão Humidade
    00:00 +10°C° 0 mm 5 m/s 736 mmHg 45%
    01:00 +10°C° 0 mm 4 m/s 736 mmHg 47%
    02:00 +10°C° 0 mm 3 m/s 736 mmHg 48%
    03:00 +9°C° 0 mm 2 m/s 736 mmHg 50%
    04:00 +10°C° 0 mm 1 m/s 736 mmHg 51%
    05:00 +10°C° 0 mm 1 m/s 736 mmHg 48%
    06:00 +11°C° 0 mm 1 m/s 736 mmHg 46%
    07:00 +11°C° 0 mm 1 m/s 737 mmHg 44%
    08:00 +12°C° 0 mm 1 m/s 736 mmHg 40%
    09:00 +13°C° 0 mm 2 m/s 736 mmHg 37%
    10:00 +14°C° 0 mm 2 m/s 736 mmHg 33%
    11:00 +14°C° 0 mm 3 m/s 735 mmHg 31%
    12:00 +15°C° 0 mm 4 m/s 735 mmHg 29%
    13:00 +17°C° 0 mm 5 m/s 734 mmHg 27%
    14:00 +18°C° 0 mm 4 m/s 734 mmHg 26%
    15:00 +19°C° 0 mm 4 m/s 733 mmHg 25%
    16:00 +19°C° 0 mm 3 m/s 733 mmHg 24%
    17:00 +18°C° 0 mm 2 m/s 733 mmHg 26%
    18:00 +17°C° 0 mm 2 m/s 733 mmHg 28%
    19:00 +16°C° 0 mm 2 m/s 734 mmHg 30%
    20:00 +16°C° 0 mm 2 m/s 734 mmHg 32%
    21:00 +14°C° 0 mm 3 m/s 735 mmHg 33%
    22:00 +14°C° 0 mm 3 m/s 735 mmHg 35%
    23:00 +13°C° 0 mm 4 m/s 735 mmHg 37%

    Depois de amanhã, 25 Setembro, Terça-feira

    Tempo Temperatura Precipitação Vento Pressão Humidade
    00:00 +13°C° 0 mm 4 m/s 735 mmHg 39%
    01:00 +12°C° 0 mm 4 m/s 734 mmHg 41%
    02:00 +12°C° 0 mm 3 m/s 734 mmHg 42%
    03:00 +11°C° 0 mm 3 m/s 734 mmHg 43%
    04:00 +11°C° 0 mm 3 m/s 734 mmHg 44%
    05:00 +11°C° 0 mm 3 m/s 734 mmHg 42%
    06:00 +12°C° 0 mm 3 m/s 734 mmHg 40%
    07:00 +12°C° 0 mm 3 m/s 735 mmHg 38%
    08:00 +14°C° 0 mm 3 m/s 735 mmHg 34%
    09:00 +16°C° 0 mm 3 m/s 735 mmHg 30%
    10:00 +17°C° 0 mm 3 m/s 735 mmHg 26%
    11:00 +18°C° 0 mm 3 m/s 734 mmHg 25%
    12:00 +19°C° 0 mm 3 m/s 734 mmHg 23%
    13:00 +20°C° 0 mm 2 m/s 733 mmHg 21%
    14:00 +20°C° 0 mm 2 m/s 733 mmHg 21%
    15:00 +20°C° 0 mm 2 m/s 732 mmHg 20%
    16:00 +20°C° 0 mm 2 m/s 732 mmHg 19%
    17:00 +19°C° 0 mm 2 m/s 732 mmHg 22%
    18:00 +19°C° 0 mm 2 m/s 733 mmHg 24%
    19:00 +19°C° 0 mm 1 m/s 733 mmHg 27%
    20:00 +17°C° 0 mm 2 m/s 733 mmHg 27%
    21:00 +17°C° 0 mm 3 m/s 733 mmHg 28%
    22:00 +16°C° 0 mm 3 m/s 734 mmHg 29%
    23:00 +16°C° 0 mm 3 m/s 734 mmHg 30%

    26 Setembro, Quarta-feira

    Tempo Temperatura Precipitação Vento Pressão Humidade
    00:00 +14°C° 0 mm 4 m/s 734 mmHg 31%
    01:00 +13°C° 0 mm 4 m/s 734 mmHg 33%
    02:00 +13°C° 0 mm 4 m/s 734 mmHg 34%
    03:00 +12°C° 0 mm 5 m/s 734 mmHg 36%
    04:00 +12°C° 0 mm 5 m/s 734 mmHg 37%
    05:00 +11°C° 0 mm 6 m/s 734 mmHg 37%
    06:00 +11°C° 0 mm 7 m/s 734 mmHg 36%
    07:00 +11°C° 0 mm 8 m/s 735 mmHg 35%
    08:00 +11°C° 0 mm 8 m/s 735 mmHg 36%
    09:00 +12°C° 0 mm 8 m/s 735 mmHg 37%
    10:00 +12°C° 0 mm 8 m/s 735 mmHg 38%
    11:00 +12°C° 0.6 mm 7 m/s 734 mmHg 45%
    12:00 +11°C° 0.6 mm 7 m/s 734 mmHg 51%
    13:00 +11°C° 0.6 mm 6 m/s 734 mmHg 58%
    14:00 +10°C° 1.4 mm 6 m/s 733 mmHg 65%
    15:00 +10°C° 1.4 mm 6 m/s 733 mmHg 72%
    16:00 +9°C° 1.4 mm 6 m/s 733 mmHg 78%
    17:00 +9°C° 1.7 mm 6 m/s 733 mmHg 81%
    18:00 +9°C° 1.7 mm 6 m/s 733 mmHg 83%
    19:00 +9°C° 1.7 mm 6 m/s 734 mmHg 85%
    20:00 +9°C° 2.4 mm 6 m/s 733 mmHg 87%
    21:00 +9°C° 2.4 mm 6 m/s 733 mmHg 88%
    22:00 +9°C° 2.4 mm 7 m/s 733 mmHg 89%
    23:00 +8°C° 2 mm 7 m/s 733 mmHg 89%

    27 Setembro, Quinta-feira

    Tempo Temperatura Precipitação Vento Pressão Humidade
    00:00 +8°C° 2 mm 7 m/s 732 mmHg 89%
    01:00 +8°C° 2 mm 7 m/s 732 mmHg 89%
    02:00 +8°C° 1.4 mm 7 m/s 732 mmHg 90%
    03:00 +8°C° 1.4 mm 7 m/s 731 mmHg 90%
    04:00 +6°C° 1.4 mm 7 m/s 731 mmHg 90%
    05:00 +8°C° 0.5 mm 6 m/s 731 mmHg 90%
    06:00 +8°C° 0.5 mm 6 m/s 731 mmHg 89%
    07:00 +8°C° 0.5 mm 6 m/s 731 mmHg 89%
    08:00 +8°C° 0.5 mm 5 m/s 731 mmHg 88%
    09:00 +9°C° 0.5 mm 5 m/s 731 mmHg 86%
    10:00 +10°C° 0.5 mm 4 m/s 731 mmHg 85%
    11:00 +11°C° 0.2 mm 4 m/s 730 mmHg 83%
    12:00 +12°C° 0.2 mm 4 m/s 730 mmHg 81%
    13:00 +12°C° 0.2 mm 3 m/s 729 mmHg 78%
    14:00 +12°C° 0.2 mm 3 m/s 729 mmHg 78%
    15:00 +12°C° 0.2 mm 3 m/s 729 mmHg 79%
    16:00 +13°C° 0.2 mm 3 m/s 729 mmHg 79%
    17:00 +12°C° 0.4 mm 3 m/s 729 mmHg 82%
    18:00 +12°C° 0.4 mm 3 m/s 729 mmHg 84%
    19:00 +12°C° 0.4 mm 3 m/s 730 mmHg 87%
    20:00 +12°C° 0.7 mm 3 m/s 729 mmHg 89%
    21:00 +11°C° 0.7 mm 3 m/s 729 mmHg 90%
    22:00 +11°C° 0.7 mm 3 m/s 729 mmHg 91%
    23:00 +11°C° 0.6 mm 3 m/s 729 mmHg 91%

    28 Setembro, Sexta-feira

    Tempo Temperatura Precipitação Vento Pressão Humidade
    00:00 +11°C° 0.6 mm 3 m/s 728 mmHg 91%
    01:00 +12°C° 0.6 mm 2 m/s 728 mmHg 91%
    02:00 +11°C° 0.6 mm 3 m/s 728 mmHg 92%
    03:00 +11°C° 0.6 mm 3 m/s 728 mmHg 92%
    04:00 +11°C° 0.6 mm 3 m/s 727 mmHg 92%
    05:00 +11°C° 0.1 mm 4 m/s 727 mmHg 89%
    06:00 +12°C° 0.1 mm 4 m/s 727 mmHg 86%
    07:00 +12°C° 0.1 mm 5 m/s 727 mmHg 83%
    08:00 +13°C° 0.2 mm 5 m/s 727 mmHg 76%
    09:00 +15°C° 0.2 mm 5 m/s 727 mmHg 69%
    10:00 +16°C° 0.2 mm 5 m/s 726 mmHg 62%
    11:00 +17°C° 1.2 mm 7 m/s 726 mmHg 54%
    12:00 +18°C° 1.2 mm 8 m/s 726 mmHg 46%
    13:00 +19°C° 1.2 mm 10 m/s 725 mmHg 37%
    14:00 +19°C° 0 mm 10 m/s 725 mmHg 36%
    15:00 +19°C° 0 mm 9 m/s 725 mmHg 35%
    16:00 +19°C° 0 mm 9 m/s 725 mmHg 34%
    17:00 +18°C° 0 mm 8 m/s 725 mmHg 37%
    18:00 +17°C° 0 mm 7 m/s 726 mmHg 41%
    19:00 +16°C° 0 mm 6 m/s 726 mmHg 44%
    20:00 +15°C° 0 mm 6 m/s 726 mmHg 46%
    21:00 +14°C° 0 mm 6 m/s 726 mmHg 48%
    22:00 +14°C° 0 mm 7 m/s 726 mmHg 50%
    23:00 +14°C° 0 mm 7 m/s 726 mmHg 50%
    Mostrar mais